This is the latest recevied weather packets stored in our database for station/object AK4NG. If no packets are shown the sender has not sent any weather packets the latest 10 day(s).
| Time | Temp. | Humidity | Pressure | Rain* | Wind** | Luminosity | Snow |
|---|---|---|---|---|---|---|---|
| 1777937821 | 25.56° C | 34% | 1014.9 hPa | 0 mm | - | 52 W/m² | - |
| 1777937517 | 25.56° C | 32% | 1014.9 hPa | 0 mm | - | 61 W/m² | - |
| 1777937215 | 25.56° C | 32% | 1015 hPa | 0 mm | - | 71 W/m² | - |
| 1777936911 | 25° C | 32% | 1015.2 hPa | 0 mm | - | 79 W/m² | - |
| 1777936608 | 25.56° C | 32% | 1015.2 hPa | 0 mm | - | 90 W/m² | - |
| 1777936304 | 25.56° C | 31% | 1015.1 hPa | 0 mm | - | 101 W/m² | - |
| 1777936001 | 25° C | 31% | 1015.1 hPa | 0 mm | - | 113 W/m² | - |
| 1777935700 | 25.56° C | 32% | 1014.9 hPa | 0 mm | - | 128 W/m² | - |
| 1777935398 | 25.56° C | 31% | 1015 hPa | 0 mm | - | 141 W/m² | - |
| 1777935093 | 26.11° C | 30% | 1015.2 hPa | 0 mm | - | 153 W/m² | - |
| 1777934790 | 26.11° C | 32% | 1015 hPa | 0 mm | - | 171 W/m² | - |
| 1777934487 | 26.11° C | 37% | 1014.9 hPa | 0 mm | - | 187 W/m² | - |
| 1777934184 | 26.11° C | 32% | 1015 hPa | 0 mm | - | 205 W/m² | - |
| 1777933880 | 26.11° C | 30% | 1015 hPa | 0 mm | - | 221 W/m² | - |
| 1777933577 | 26.11° C | 34% | 1015.1 hPa | 0 mm | - | 238 W/m² | - |
| 1777933274 | 26.67° C | 31% | 1015.1 hPa | 0 mm | - | 256 W/m² | - |
| 1777932971 | 26.11° C | 31% | 1015.2 hPa | 0 mm | - | 272 W/m² | - |
| 1777932669 | 26.11° C | 31% | 1015.1 hPa | 0 mm | - | 288 W/m² | - |
| 1777932364 | 26.11° C | 34% | 1015.1 hPa | 0 mm | - | 307 W/m² | - |
| 1777932062 | 26.67° C | 30% | 1015.1 hPa | 0 mm | - | 327 W/m² | - |
| 1777931758 | 26.67° C | 30% | 1015.1 hPa | 0 mm | - | 348 W/m² | - |
| 1777931456 | 26.11° C | 30% | 1015.3 hPa | 0 mm | - | 368 W/m² | - |
| 1777931151 | 26.11° C | 30% | 1015.2 hPa | 0 mm | - | 386 W/m² | - |
| 1777930848 | 26.11° C | 31% | 1015.2 hPa | 0 mm | - | 404 W/m² | - |
| 1777930545 | 26.67° C | 29% | 1015.1 hPa | 0 mm | - | 422 W/m² | - |
* Rain latest hour (hover to see other rain measurements)
** Current wind speed in m/s (hover to see current wind gust speed)